Location: Usti nad Labem
(50.6670°N, 14.0330°E)
Time: 23:53:05
(UTC+02:00)

ISS - Visible Passes

Search period start: 15 July 2024 00:00
Search period end: 25 July 2024 00:00
Orbit: 410 x 424 km, 51.6° (Epoch: 15 July)

Date Brightness Start Highest point End Pass type
(mag) Time Alt. Az. Time Alt. Az. Time Alt. Az.
15 Jul -4.0 00:40:08 10° WNW 00:43:28 79° SSW 00:44:31 41° ESE visible
15 Jul -1.2 02:17:12 10° W 02:17:22 11° W 02:17:22 11° W visible
15 Jul -3.7 22:15:01 10° W 22:18:20 80° N 22:21:41 10° E visible
15 Jul -3.8 23:51:51 10° WNW 23:55:12 86° NNE 23:57:18 21° E visible
16 Jul -2.0 01:28:44 10° W 01:30:09 21° W 01:30:09 21° W visible
16 Jul -3.7 23:03:30 10° W 23:06:50 76° N 23:10:09 10° E visible
17 Jul -3.3 00:40:18 10° W 00:43:02 42° SW 00:43:02 42° SW visible
17 Jul -3.5 22:15:04 10° W 22:18:23 72° N 22:21:43 10° E visible
17 Jul -3.8 23:51:52 10° WNW 23:55:09 63° SSW 23:55:57 45° SE visible
18 Jul -3.9 23:03:21 10° WNW 23:06:41 82° SSW 23:08:51 20° ESE visible
19 Jul -1.8 00:40:22 10° W 00:41:43 18° WSW 00:41:43 18° WSW visible
19 Jul -3.8 22:14:48 10° WNW 22:18:08 84° N 22:21:27 10° E visible
19 Jul -3.0 23:51:39 10° W 23:54:37 34° SSW 23:54:37 34° SSW visible
20 Jul -3.5 23:02:56 10° W 23:06:10 49° SSW 23:07:29 29° SSE visible
21 Jul -3.7 22:14:13 10° WNW 22:17:31 66° SSW 22:20:21 13° ESE visible
21 Jul -1.8 23:51:29 10° W 23:53:12 17° SW 23:53:12 17° SW visible
22 Jul -2.5 23:02:23 10° W 23:05:12 26° SW 23:06:01 23° S visible
23 Jul -2.9 22:13:24 10° W 22:16:30 37° SSW 22:18:50 15° SSE visible
24 Jul -1.5 23:02:15 10° WSW 23:03:48 13° SW 23:04:28 12° SSW visible
